FW0209 Weather Reports


time (UTC)temp
F
wind
direction
speed
knots
gust
knots
rain 1hr
in
rain 24hr
in
rain mn
in
humidity
%
barometer
mb
20260504050013 48 300 0.9 2.6 0.00 0.00 0.00 84 1022.0
20260504044532 48 300 0.0 0.0 0.00 0.00 0.00 84 1021.9
20260504043033 47 298 0.0 1.7 0.00 0.00 0.00 84 1022.0
20260504041520 47 182 0.9 1.7 0.00 0.00 0.00 84 1021.9
20260504040021 47 176 0.0 2.6 0.00 0.00 0.00 83 1021.8
20260504034525 47 180 0.0 0.0 0.00 0.00 0.00 83 1021.9
20260504033024 47 181 0.0 0.0 0.00 0.00 0.00 83 1021.8
20260504031525 48 175 0.9 2.6 0.00 0.00 0.00 83 1021.9
20260504030019 48 177 0.0 1.7 0.00 0.00 0.00 83 1022.0
20260504024518 48 178 0.0 1.7 0.00 0.00 0.00 82 1022.0
20260504023037 48 177 0.0 0.0 0.00 0.00 0.00 82 1022.2
20260504021535 48 174 0.0 0.9 0.00 0.00 0.00 81 1022.3
20260504020032 48 173 0.0 0.0 0.00 0.00 0.00 81 1022.2
20260504014531 49 360 0.0 1.7 0.00 0.00 0.00 81 1022.3
20260504013050 49 360 0.0 1.7 0.00 0.00 0.00 81 1022.3
20260504011526 49 360 0.0 0.9 0.00 0.00 0.00 80 1022.0
20260504010029 50 186 0.0 2.6 0.00 0.00 0.00 79 1022.1
20260504004527 51 217 0.9 2.6 0.00 0.00 0.00 79 1022.0
20260504003023 51 219 0.0 0.0 0.00 0.00 0.00 79 1022.0
20260504001525 51 223 0.0 3.5 0.00 0.00 0.00 79 1022.0
20260504000020 52 223 2.6 5.2 0.00 0.00 0.00 79 1022.1
20260503234522 52 238 6.1 8.7 0.00 0.00 0.00 79 1022.1
20260503233038 52 246 5.2 7.8 0.00 0.00 0.00 79 1022.3
20260503231514 52 245 3.5 7.8 0.00 0.00 0.00 78 1022.2
20260503230016 52 250 2.6 7.8 0.00 0.00 0.00 78 1022.3
20260503224515 53 250 4.3 7.8 0.00 0.00 0.00 77 1022.3
20260503223020 53 250 2.6 7.8 0.00 0.00 0.00 76 1022.3
20260503221521 54 252 5.2 8.7 0.00 0.00 0.00 75 1022.3
20260503220017 54 251 3.5 7.0 0.00 0.00 0.00 75 1022.2
20260503214515 55 265 4.3 8.7 0.00 0.00 0.00 74 1022.0
20260503213036 55 259 4.3 7.0 0.00 0.00 0.00 73 1021.8
20260503211524 56 250 1.7 2.6 0.00 0.00 0.00 72 1021.9
20260503210026 56 257 2.6 5.2 0.00 0.00 0.00 71 1021.8
20260503204521 57 232 3.5 4.3 0.00 0.00 0.00 70 1021.9
20260503203016 57 231 1.7 2.6 0.00 0.00 0.00 70 1021.6
20260503201559 58 233 1.7 5.2 0.00 0.00 0.00 68 1021.7
20260503200014 59 226 0.9 3.5 0.00 0.00 0.00 66 1021.5
20260503194549 60 229 0.0 1.7 0.00 0.00 0.00 65 1021.3
20260503193017 61 227 0.0 0.9 0.00 0.00 0.00 63 1021.2
20260503190028 62 213 0.0 5.2 0.00 0.00 0.00 61 1020.9
20260503184546 62 235 3.5 7.8 0.00 0.00 0.00 60 1020.6
20260503183023 63 246 4.3 10.4 0.00 0.00 0.00 60 1020.4
20260503181521 63 242 3.5 9.6 0.00 0.00 0.00 60 1020.4
20260503180022 63 217 5.2 10.4 0.00 0.00 0.00 59 1020.3
20260503174514 64 208 5.2 8.7 0.00 0.00 0.00 58 1020.1
20260503173011 64 226 4.3 8.7 0.00 0.00 0.00 57 1020.0
20260503171514 65 277 6.1 11.3 0.00 0.00 0.00 57 1019.9
20260503081516 58 160 0.0 0.9 0.00 0.00 0.00 53 1023.4
20260503071513 53 160 0.0 0.0 0.00 0.00 0.00 58 1024.1
20260503054524 45 275 0.0 0.0 0.00 0.00 0.00 74 1024.0
20260503053015 44 306 0.0 0.0 0.00 0.00 0.00 76 1024.0